Regional Weather Roundup
Issued by NWS Mobile, AL

Home | Current Version | Previous Version | Text Only | Print | Product List | Glossary On
Versions: 1 2 3 4 5 6 7 8 9 10 11 12 13 14 15 16 17 18 19 20 21 22 23 24 25 26 27 28 29 30 31 32 33 34 35 36 37 38 39 40 41 42 43 44 45 46 47 48 49 50
000
ASUS44 KMOB 270910
RWRMOB
REGIONAL WEATHER ROUNDUP
NATIONAL WEATHER SERVICE MOBILE AL
400 AM CDT WED AUG 27 2014

NOTE: "FAIR" INDICATES FEW OR NO CLOUDS BELOW 12,000 FEET WITH NO
      SIGNIFICANT WEATHER AND/OR OBSTRUCTIONS TO VISIBILITY.

  * THESE STATIONS ARE PART OF THE UNIVERSITY OF SOUTH ALABAMA
    MESONET AND ARE NOT UNDER NWS OR FAA QUALITY CONTROL.

ALZ061>064-271000-
COASTAL ALABAMA

CITY           SKY/WX    TMP DP  RH WIND       PRES   REMARKS
MOBILE REG APT PTCLDY    75  70  84 NE6       30.00S
BROOKLEY FIELD CLEAR     79  70  74 NE8       30.00S
USA CAMPUS*      N/A     72  70  94 CALM      29.99S
DOG RIVER*       N/A     79  72  78 NE3       29.99R


CITY           SKY/WX    TMP DP  RH WIND       PRES   REMARKS
MOUNT VERNON*    N/A     68  66  94 CALM      30.00S
SARALAND*      NOT AVBL
BAY MINETTE*   NOT AVBL
LOXLEY*          N/A     70  68  94 N2        29.99S
ROBERTSDALE*     N/A    N/A N/A N/A NE3       29.99R
FAIRHOPE*        N/A     72  70  94 NE3       29.98R
ELBERTA*         N/A     73  59  60 CALM      29.97
FOLEY*         NOT AVBL
GRAND BAY*       N/A     72  70  94 CALM      29.96F
DAUPHIN ISLND* NOT AVBL
BON SCOUR NWR* NOT AVBL
GULF SHORES    CLEAR     73  71  94 CALM      29.97S

$$

ALZ051>060-271000-
INTERIOR SOUTHWEST AND SOUTH CENTRAL ALABAMA

CITY           SKY/WX    TMP DP  RH WIND       PRES   REMARKS
GREENVILLE     CLEAR     68  63  84 CALM      30.02S
EVERGREEN      CLEAR     69  66  90 CALM      30.01S
CASTLEBERRY*   NOT AVBL
ATMORE*          N/A     72  68  88 NE2       30.01S
DIXIE*         NOT AVBL
ANDALUSIA/OPP  CLEAR     74  65  73 CALM      30.01S
ANDALUSIA*     NOT AVBL
FLORALA APT    CLEAR     73  65  75 CALM      30.02S
FLORALA*         N/A     68  66  94 CALM      29.99R

$$

FLZ001>006-271000-
WESTERN FLORIDA PANHANDLE

CITY           SKY/WX    TMP DP  RH WIND       PRES   REMARKS
PENSACOLA      CLEAR     74  70  87 NE7       29.97F
NAS PENSACOLA  CLEAR     73  72  96 NW6       29.96F
MILTON         CLEAR     72  66  81 N5        29.98F
WHTNG S FIELD  CLEAR     75  67  76 CALM      29.98F


CITY           SKY/WX    TMP DP  RH WIND       PRES   REMARKS
WALNUT HILL*   NOT AVBL
JAY*           NOT AVBL
DUKE FIELD     CLEAR     69  69  99 N2        29.99R
CRESTVIEW      CLEAR     70  67  90 N3        30.00S
VALPARAISO     PTCLDY    73  70  90 N3        29.97F
DESTIN         CLEAR     77  75  93 CALM      29.97S

$$

MSZ076-079-271000-
INTERIOR SOUTHEAST MISSISSIPPI

CITY           SKY/WX    TMP DP  RH WIND       PRES   REMARKS
LEAKESVILLE*     N/A     72  66  83 CALM        N/A
AGRICOLA*      NOT AVBL

$$

MARINE OBSERVATIONS

STATION/POSITION TIME  TEMP    WIND        PRES    WAVE
                       AIR SEA DIR/SP/G            HT/PER
                 (UTC) (F)     (DEG/KT/KT) (MB)    (FT/S)
PASCAGOULA       0900   79      20/  6/  7 1014.7F
PETIT BOIS ISLND 0900   82      40/  6/  8 1015.1F
GRAND BAY        0800   77      10/  4     1016.0S
KATRINA CUT      0800   81      30/  7     1015.6S
CEDAR POINT      0800   78     360/  4     1014.9S
E DAUPHIN ISLAND 0800   82      70/  5/  5 1015.1R
MIDDLE BAY LIGHT 0800   80      80/ 10     1014.9R
USCG MOBILE BAY  0900   79 85   40/  5/  7 1014.3S
STATE DOCKS      0900   79 85              1015.2S
MEAHER PARK      0800   78      40/  4     1015.2R
WEEKS BAY        0800   72                   N/A
FORT MORGAN      0900   81      80/  6/  6 1014.4F
12 S ORANGE BCH  0900   83 85   60/  4/  6 1014.7F   2/ 5
PENSACOLA BAY    0900   80 85   10/  3/  5 1015.0S
64 S DAUPHIN ISL 0803   85 86   90/ 16/ 17 1014.2S
67 S FORT MORGAN 0800   83                 1013.9S

$$

SELECTED LOCATIONS ACROSS THE REGION

CITY           SKY/WX    TMP DP  RH WIND       PRES   REMARKS
NEW ORLEANS    PTCLDY    81  74  79 E3        29.96S
GULFPORT       CLEAR     76  73  91 N5        29.97S
PASCAGOULA AP  PTCLDY    73  71  93 CALM      29.98S
PASCAGOULA*      N/A     75  73  94 N2        29.97S
HATTIESBURG    PTCLDY    70  68  93 CALM      30.01S
LAUREL         PTCLDY    72  64  78 CALM      30.02S
MERIDIAN       CLEAR     67  64  90 N6        30.04R
JACKSON        MOCLDY    72  66  81 CALM      30.04R
MONTGOMERY     CLEAR     70  65  84 CALM      30.03S
TROY           CLEAR     66  63  90 CALM      30.03S
KINSTON*       NOT AVBL
GENEVA*          N/A     68  64  88 CALM      30.02S
ASHFORD*       NOT AVBL
DOTHAN         CLEAR     69  64  84 NE5       30.04S
PANAMA CITY    CLEAR     73  69  87 CALM      29.97S

$$



USA.gov is the U.S. government's official web portal to all federal, state and local government web resources and services.